Regional Weather Roundup
Issued by NWS

Home | Current Version | Previous Version | Text Only | Print | Product List | Glossary Off
Versions: 1 2 3 4 5 6 7 8 9 10 11 12 13 14 15 16 17 18 19 20 21 22 23 24 25 26 27 28 29 30 31 32 33 34 35 36 37 38 39 40 41 42 43 44 45 46 47 48 49 50

000
ASUS45 KCYS 262110
RWRWY

WYOMING REGIONAL WEATHER ROUNDUP
NATIONAL WEATHER SERVICE CHEYENNE WY
200 PM MST MON JAN 26 2015

NOTE:  "FAIR" INDICATES FEW OR NO CLOUDS BELOW 12,000 FEET
WITH NO SIGNIFICANT WEATHER AND/OR OBSTRUCTIONS TO VISIBILITY.

WYZ001-262200-
YELLOWSTONE NATIONAL PARK

CITY           SKY/WX    TMP DP  RH WIND       PRES   REMARKS
LK YELLOWSTONE   N/A     31  20  63 SE3       30.36F
W YELLOWSTONE  NOT AVBL

$$
WYZ002>013-054>058-071-098>099-262200-
NORTHERN WYOMING

CITY           SKY/WX    TMP DP  RH WIND       PRES   REMARKS
JACKSON        CLOUDY    25  25 100 CALM      30.38F
CODY           FAIR      39  30  70 NE5       30.14F
GREYBULL       FAIR      39  28  64 VRB5      30.18F
WORLAND        FAIR      36  28  73 CALM      30.17F
SHERIDAN       FAIR      65  36  34 S3        30.05F
BUFFALO          N/A     67  26  21 S12       30.11F
GILLETTE       FAIR      60  35  39 SW15      30.07F
HULETT           N/A    N/A N/A N/A MISG        N/A
NEWCASTLE      FAIR      59  28  31 N7        30.11S

$$
WYZ014>020-022>026-101>103-262200-
CENTRAL WYOMING

CITY           SKY/WX    TMP DP  RH WIND       PRES   REMARKS
BIG PINEY      FAIR      41  25  53 SE3       30.35F
PINEDALE       FAIR      36  27  69 CALM      30.36F
DUBOIS         FAIR      59  27  29 W7        30.26F
LANDER         FAIR      39  28  64 CALM      30.22F
RIVERTON       FAIR      43  28  55 E3        30.24F
CASPER         FAIR      53  28  38 SW25G35   30.20F
DOUGLAS        NOT AVBL

$$
WYZ021-027>030-104>119-262200-
SOUTHERN WYOMING

CITY           SKY/WX    TMP DP  RH WIND       PRES   REMARKS
EVANSTON       FAIR      48  32  53 N3        30.33F
KEMMERER       FAIR      46  28  49 N5        30.34F
FORT BRIDGER   FAIR      50  31  47 NE3       30.36F
ROCK SPRINGS   FAIR      52  28  39 N5        30.33F
DIXON          FAIR      44  28  54 CALM      30.39F
RAWLINS        FAIR      52  26  36 W16       30.34F
SARATOGA       FAIR      54  27  35 S5        30.34F
LARAMIE        FAIR      59  25  27 N8        30.27F
CHEYENNE       FAIR      66  20  17 W15G21    30.21F
TORRINGTON     FAIR      67  28  23 W8        30.12F
PINE BLUFFS    FAIR      68  21  17 NW16G26   30.18F

$$



USA.gov is the U.S. government's official web portal to all federal, state and local government web resources and services.